EHI
0 0 0 0 0 0 0 0 0 0 0 0 0 0 0 0 0 0 0 0 0 0 0 0 0 0 0 0 0 0 0 0 0 0 0 0 0 0 0 0 0 0 0 0
0 0 0 0 0 0 0 0 0 0 0 0 0 0 0 0 0 0 0 0 0 0 0 0 0 0 0 0 0 0 0 0 0 0 0 0 0 0 0 0 0 0 0 0
0 0 0 0 0 0 0 0 0 0 0 0 0 0 0 0 0 0 0 0 0 0 0 0 0 0 0 0 0 0 0 0 0 0 0 0 0 0 0 0 0 0 0 0
0 0 0 0 0 0 0 0 0 0 0 0 0 0 0 0 0 0 0 0 0 0 0 0 0 0 0 0 0 0 0 0 0 0 0 0 0 0 0 0 0 0 0 0
0 0 0 0 0 0 0 0 0 0 0 0 0 0 0 0 0 0 0 0 0 0 0 0 0 0 0 0 0 0 0 0 0 0 0 0 0 0 0 0 0 0 0 0
0 0 0 0 0 0 0 0 0 0 0 0 0 0 0 0 0 0 0 0 0 0 0 0 0 0 0 0 0 0 0 0 0 0 0 0 0 0 0 0 0 0 0 0
0 0 0 0 0 0 0 0 0 0 0 0 0 0 0 0 0 0 0 0 0 0 0 0 0 0 0 0 0 0 0 0 0 0 0 0 0 0 0 0 0 0 0 0
0 0 0 0 0 0 0 0 0 0 0 0 0 0 0 0 0 0 0 0 0 0 0 0 0 0 0 0 0 0 0 0 0 0 0 0 0 0 0 0 0 0 0 0
0 0 0 0 0 0 0 0 0 0 0 0 0 0 0 0 0 0 0 0 0 0 0 0 0 0 0 0 0 0 0 0 0 0 0 0 0 0 0 0 0 0 0 0
0 0 0 0 0 0 0 0 0 0 0 0 0 0 0 0 0 0 0 0 0 0 0 0 0 0 0 0 0 0 0 0 0 0 0 0 0 0 0 0 0 0 0 0
0 0 0 0 0 0 0 0 0 0 0 0 0 0 0 0 0 0 0 0 0 0 0 0 0 0 0 0 0 0 0 0 0 0 0 0 0 0 0 0 0 0 0 0
0 0 0 0 0 0 0 0 0 0 0 0 0 0 0 0 0 0 0 0 0 0 0 0 0 0 0 0 0 0 0 0 0 0 0 0 0 0 0 0 0 0 0 0
0 0 0 0 0 0 0 0 0 0 0 0 0 0 0 0 0 0 0 0 0 0 0 0 0 0 0 0 0 0 0 0 0 0 0 0 0 0 0 0 0 0 0 0
0 0 0 0 0 0 0 0 0 0 0 0 0 0 0 0 0 0 0 0 0 0 0 0 0 0 0 0 0 0 0 0 0 0 0 0 0 0 0 0 0 0 0 0
0 0 0 0 0 0 0 0 0 0 0 0 0 0 0 0 0 0 0 0 0 0 0 0 0 0 0 0 0 0 0 0 0 0 0 0 0 0 0 0 0 0 0 0
0 0 0 0 0 0 0 0 0 0 0 0 0 0 0 0 0 0 0 0 0 0 0 0 0 0 0 0 0 0 0 0 0 0 0 0 0 0 0 0 0 0 0 0
0 0 0 0 0 0 0 0 0 0 0 0 0 0 0 0 0 0 0 0 0 0 0 0 0 0 0 0 0 0 0 0 0 0 0 0 0 0 0 0 0 0 0 0
0 0 0 0 0 0 0 0 0 0 0 0 0 0 0 0 0 0 0 0 0 0 0 0 0 0 0 0 0 0 0 0 0 0 0 0 0 0 0 0 0 0 0 0
0 0 0 0 0 0 0 0 0 0 0 0 0 0 0 0 0 0 0 0 0 0 0 0 0 0 0 0 0 0 0 0 0 0 0 0 0 0 0 0 0 0 0 0
0 0 0 0 0 0 0 0 0 0 0 0 0 0 0 0 0 0 0 0 0 0 0 0 0 0 0 0 0 0 0 0 0 0 0 0 0 0 0 0 0 0 0 0
0 0 0 0 0 0 0 0 0 0 0 0 0 0 0 0 0 0 0 0 0 0 0 0 0 0 0 0 0 0 0 0 0 0 0 0 0 0 0 0 0 0 0 0
0 0 0 0 0 0 0 0 0 0 0 0 0 0 0 0 0 0 0 0 0 0 0 0 0 0 0 0 0 0 0 0 0 0 0 0 0 0 0 0 0 0 0 0
0 0 0 0 0 0 0 0 0 0 0 0 0 0 0 0 0 0 0 0 0 0 0 0 0 0 0 0 0 0 0 0 0 0 0 0 0 0 0 0 0 0 0 0
0 0 0 0 0 0 0 0 0 0 0 0 0 0 0 0 0 0 0 0 0 0 0 0 0 0 0 0 0 0 0 0 0 0 0 0 0 0 0 0 0 0 0 0
0 0 0 0 0 0 0 0 0 0 0 0 0 0 0 0 0 0 0 0 0 0 0 0 0 0 0 0 0 0 0 0 0 0 0 0 0 0 0 0 0 0 0 0
0 0 0 0 0 0 0 0 0 0 0 0 0 0 0 0 0 0 0 0 0 0 0 0 0 0 0 0 0 0 0 0 0 0 0 0 0 0 0 0 0 0 0 0
0 0 0 0 0 0 0 0 0 0 0 0 0 0 0 0 0 0 0 0 0 0 0 0 0 0 0 0 0 0 0 0 0 0 0 0 0 0 0 0 0 0 0 0
Wind_Speed
2 1 5 7 7 6 5 3 5 6 6 6 6 7 8 9 9 10 10 9 8 7 6 6 7 6 6 6 5 5 6 6 5 5 5 5 5 5 5 6 6 5 6 6
3 4 8 8 8 8 7 6 7 8 4 4 6 7 7 8 9 9 9 9 9 8 7 6 6 6 5 5 4 5 6 5 5 5 5 5 5 5 5 5 5 5 5 5
1 1 6 5 3 5 5 3 4 4 5 9 7 7 7 8 9 9 9 9 9 8 6 5 5 5 5 4 5 5 5 4 4 4 4 4 5 5 4 4 4 4 4 4
1 4 4 1 2 9 9 5 5 7 8 8 8 6 5 6 8 9 9 9 8 7 6 5 4 4 5 5 5 5 4 4 4 4 4 3 4 4 3 2 3 2 2 3
3 3 2 2 2 4 6 3 3 9 10 10 11 9 6 5 7 7 8 7 6 6 6 5 5 5 5 5 4 5 4 4 3 3 3 3 3 2 1 2 2 1 2 2
4 4 2 2 1 5 9 3 2 8 11 10 7 5 3 5 8 8 8 7 6 6 6 5 4 5 5 4 5 4 4 3 3 3 3 2 2 1 1 2 2 2 2 1
3 3 1 2 0 3 3 5 5 7 9 8 4 4 8 9 8 8 7 7 6 6 5 4 4 5 5 4 4 3 3 3 3 2 2 2 1 1 2 2 2 2 1 1
3 3 4 4 3 4 4 4 8 8 8 9 10 11 10 10 9 8 7 7 6 5 4 4 4 5 5 3 2 2 3 3 2 2 1 2 3 2 2 3 3 2 2 1
4 4 3 2 5 5 8 8 7 8 10 13 12 11 10 9 8 7 7 6 5 5 5 3 3 4 4 2 2 3 3 2 2 2 3 3 3 3 3 3 3 2 2 2
5 3 4 6 7 6 8 9 9 12 12 12 12 11 10 8 7 6 6 6 5 5 5 3 2 3 3 2 2 3 2 1 1 2 2 3 3 3 3 3 3 2 2 2
5 5 6 5 7 10 11 12 12 11 10 11 12 11 9 7 6 6 5 4 4 5 4 4 3 2 2 2 2 2 1 1 1 2 2 2 2 2 2 1 2 2 1 1
8 10 8 7 8 12 12 12 12 13 10 9 10 10 8 7 6 5 5 4 4 4 4 3 3 2 2 2 2 2 1 1 1 1 1 2 2 2 2 1 1 2 2 2
9 10 9 11 11 11 11 12 12 11 11 10 8 8 8 6 5 5 5 4 4 5 4 4 3 2 2 2 2 2 2 2 1 2 2 2 2 2 0 2 2 3 3 3
16 15 12 10 10 11 13 13 11 11 10 10 8 8 8 6 6 6 5 5 4 5 4 4 4 3 3 2 2 2 2 2 2 2 2 3 2 2 2 1 1 3 3 4
10 11 13 13 12 13 13 13 12 10 9 8 8 8 8 7 7 6 5 4 5 4 4 4 3 3 2 2 2 1 1 1 1 2 2 2 2 2 2 2 1 1 2 3
13 15 15 15 15 14 14 14 12 10 9 8 8 7 7 7 6 5 5 5 5 4 3 3 3 3 3 2 2 1 1 2 3 2 1 1 1 2 2 1 1 1 1 2
16 15 16 15 14 13 13 12 11 10 9 9 9 8 7 7 6 5 4 4 5 4 4 4 3 2 2 2 2 2 1 1 2 2 2 2 2 2 2 2 2 1 2 2
15 15 15 16 15 14 13 13 12 11 10 9 10 9 8 7 6 6 5 4 4 2 2 3 3 2 1 1 2 2 2 2 2 2 2 2 2 2 2 2 2 2 2 2
15 15 14 14 14 13 12 12 11 11 10 10 9 8 8 7 7 6 5 5 5 3 3 3 3 2 1 2 1 2 2 2 2 2 2 3 2 2 2 2 2 2 2 1
14 16 15 14 13 12 13 12 12 10 10 10 9 8 7 7 6 5 5 4 5 5 5 4 2 1 1 2 1 1 2 2 3 3 3 3 3 2 2 2 2 2 2 1
17 16 16 14 13 13 13 13 12 11 10 10 9 9 8 6 6 5 4 3 4 4 4 5 2 1 1 1 1 1 1 2 3 4 4 4 3 3 2 2 2 2 2 2
15 14 15 14 13 12 11 11 12 12 10 9 9 8 7 6 5 5 5 5 5 6 4 3 2 3 3 1 1 1 1 2 3 4 4 4 4 3 3 3 2 2 2 2
13 13 14 14 14 12 11 11 11 11 10 10 9 8 7 6 5 5 4 4 4 7 5 3 5 6 4 1 1 2 1 2 4 4 4 4 4 4 4 4 3 3 2 2
12 12 13 12 12 12 11 10 10 9 9 9 8 8 7 5 3 4 4 7 9 8 4 5 7 7 4 1 1 2 2 2 3 4 4 4 4 4 3 3 3 3 3 3
12 12 12 14 13 10 10 9 9 8 7 6 7 7 6 5 5 5 4 6 9 8 4 6 8 7 3 2 2 2 2 3 3 4 4 4 4 4 4 3 4 3 3 3
12 11 11 11 10 9 8 7 6 6 6 5 4 4 4 4 5 4 4 6 8 7 5 4 4 5 3 3 3 3 3 3 3 3 4 4 4 4 4 4 5 4 4 4
11 9 8 8 7 8 8 7 7 6 6 6 5 5 5 5 5 5 6 5 5 5 5 4 4 4 4 4 4 4 4 4 4 4 4 4 4 4 5 6 5 4 4 4
Wind_Direction
233 159 95 83 67 65 82 127 137 147 146 165 153 139 132 127 124 121 118 116 113 108 103 100 97 95 93 91 90 92 90 86 81 78 75 72 70 72 75 78 82 78 71 60
23 74 87 73 68 76 77 85 109 119 111 123 120 118 125 131 133 130 130 127 121 116 113 110 109 108 104 99 98 94 91 89 85 81 79 77 77 78 77 75 76 77 70 63
350 87 71 44 31 90 90 87 129 147 152 139 130 134 142 143 138 134 131 130 127 123 119 117 114 114 116 113 104 96 93 93 86 81 79 79 89 81 80 84 86 82 77 73
109 58 71 253 93 105 96 63 88 110 129 138 129 116 106 126 135 133 133 131 127 122 116 111 110 107 108 104 103 101 98 95 91 89 85 79 79 81 83 89 96 97 90 78
99 92 117 134 117 128 112 75 97 120 122 119 116 95 76 93 116 121 121 120 118 117 110 102 99 102 104 99 97 103 105 103 101 101 96 87 82 84 96 98 91 108 124 107
112 122 168 246 328 122 101 105 153 132 139 142 135 123 140 124 115 113 113 114 114 112 104 100 98 102 102 98 97 102 109 113 113 111 108 107 108 100 96 110 114 114 111 121
108 114 178 292 252 111 127 200 160 142 146 149 140 136 133 125 116 117 116 116 116 113 108 112 113 106 102 102 111 126 115 103 97 104 110 112 89 71 80 79 79 77 95 82
112 123 237 302 64 123 161 124 124 124 127 118 111 111 117 121 122 122 120 119 118 112 108 112 114 110 110 120 143 123 101 92 91 91 87 89 78 57 56 73 73 63 62 32
139 178 211 76 108 122 122 116 118 120 123 123 120 121 122 122 125 126 126 124 121 119 116 112 120 124 128 159 143 113 96 90 88 73 60 71 84 76 58 62 73 63 67 55
93 115 112 101 101 102 113 118 122 127 128 127 125 128 125 128 129 128 127 127 123 119 118 121 133 137 160 161 129 111 107 96 98 89 66 61 68 80 83 78 78 70 68 59
103 137 107 101 118 118 112 114 117 120 124 128 129 130 130 131 133 134 132 131 131 135 143 154 155 162 177 157 122 115 123 124 109 113 113 97 75 71 100 122 158 143 143 140
180 179 149 153 143 129 125 126 128 126 121 125 130 132 131 132 134 134 136 136 140 148 155 160 159 174 197 190 161 144 126 125 143 140 129 127 118 60 41 146 130 132 168 182
141 138 128 133 132 125 125 129 129 129 133 133 132 133 133 134 136 138 144 149 158 164 167 166 166 189 213 199 168 155 164 177 166 154 156 159 156 153 224 329 313 289 275 273
119 115 115 127 130 127 127 126 124 123 127 131 133 134 133 133 139 148 162 175 170 161 160 163 174 200 206 173 147 143 152 169 169 173 173 177 179 180 178 186 304 312 301 285
119 122 130 128 124 125 127 127 127 128 129 128 132 135 137 140 151 164 171 161 147 148 158 161 169 205 208 169 151 152 160 175 172 168 175 179 173 163 170 184 209 269 317 325
120 120 126 131 134 135 135 135 136 139 139 136 138 142 145 147 150 152 152 145 141 156 169 163 176 204 195 159 144 154 192 185 166 157 163 161 148 141 147 151 150 186 250 284
134 141 143 143 145 144 144 145 145 146 144 143 148 147 141 135 134 142 155 158 159 169 172 171 193 212 186 171 170 190 207 214 184 152 166 171 162 161 161 159 171 199 237 251
151 151 152 151 151 149 148 148 148 146 147 149 146 141 140 144 155 170 174 163 154 165 192 193 191 189 208 210 189 187 190 202 190 178 176 171 171 172 165 164 182 201 244 280
143 145 146 147 148 147 148 149 150 149 149 148 146 149 155 162 171 177 173 165 168 190 228 223 198 172 207 248 208 181 184 186 186 182 172 174 168 172 173 178 192 205 217 228
146 147 148 148 146 145 147 149 148 148 150 148 147 151 158 171 177 176 171 181 200 204 208 205 193 202 250 268 241 191 191 188 187 183 174 169 174 188 197 196 196 201 211 207
150 150 151 151 148 148 150 149 149 152 154 153 155 164 174 182 179 165 159 194 232 210 193 195 192 215 223 236 226 213 208 199 188 178 174 177 182 191 201 205 201 200 199 200
151 150 151 149 146 147 149 149 151 154 155 159 165 168 172 181 182 178 188 198 205 188 177 192 207 215 214 210 235 257 234 210 189 178 177 180 183 190 202 203 205 208 204 199
149 148 148 150 149 149 148 151 154 156 161 167 170 172 177 182 176 170 202 218 188 183 178 203 217 216 213 209 264 281 264 214 188 183 184 186 188 188 194 202 204 198 193 189
144 146 146 144 141 143 150 158 157 160 164 169 176 176 172 172 193 205 195 188 187 184 190 212 215 215 208 208 268 280 263 211 189 185 183 183 187 188 192 194 196 196 189 181
144 142 144 146 149 155 158 156 153 159 161 169 180 182 176 172 179 195 187 183 186 182 194 213 220 226 221 231 256 261 236 207 188 179 179 180 187 191 194 191 190 189 186 181
146 150 154 157 156 155 156 155 158 164 163 169 182 185 177 175 173 170 175 185 187 189 195 209 221 227 225 233 246 243 230 214 192 186 187 187 189 188 191 194 193 188 187 184
142 142 144 146 152 156 157 159 164 170 171 172 183 187 178 173 174 177 180 184 191 202 208 213 217 219 223 227 234 231 222 216 207 199 193 191 189 191 193 191 190 187 181 176